Regional Weather Roundup
Issued by NWS Boston, MA

Current Version | Previous Version | Text Only | Print | Product List | Glossary Off
Versions: 1 2 3 4 5 6 7 8 9 10 11 12 13 14 15 16 17 18 19 20 21 22 23 24 25 26 27 28 29 30 31 32 33 34 35 36 37 38 39 40 41 42 43 44 45 46 47 48 49 50
310 ASUS41 KBOX 240410 RWRBOX REGIONAL WEATHER ROUNDUP NATIONAL WEATHER SERVICE TAUNTON MA 1100 PM EST THU NOV 23 2017 NOTE: "FAIR" INDICATES FEW OR NO CLOUDS BELOW 12,000 FEET WITH NO SIGNIFICANT WEATHER AND/OR OBSTRUCTIONS TO VISIBILITY. MAZALL-240500- EASTERN MASSACHUSETTS CITY SKY/WX TMP DP RH WIND PRES REMARKS BOSTON PTCLDY 35 18 49 W5 29.99R WCI 31 BEVERLY CLEAR 27 21 78 CALM 29.97S LAWRENCE MOCLDY 30 21 69 CALM 29.99S BEDFORD MOCLDY 26 22 84 CALM 29.97S BLUE HILL NOT AVBL NORWOOD PTCLDY 27 23 85 CALM 29.99S MARSHFIELD CLEAR 30 25 80 W5 29.99R WCI 25 PLYMOUTH CLEAR 29 25 85 CALM 29.99R TAUNTON CLEAR 27 24 89 W3 30.00R NEW BEDFORD CLEAR 26 24 92 CALM 30.00R $$ MAZALL-240500- CAPE COD AND THE ISLANDS CITY SKY/WX TMP DP RH WIND PRES REMARKS FALMOUTH CLEAR 27 25 93 CALM 30.00S HYANNIS PTCLDY 28 24 85 W3 29.98R CHATHAM PTCLDY 34 23 64 W3 30.00R PROVINCETOWN CLEAR 38 19 46 W6 29.98S NANTUCKET PTCLDY 36 29 75 NW7 29.99R WCI 30 MARTHAS VNYRD PTCLDY 26 23 88 W3 30.00R $$ MAZALL-240500- CENTRAL AND WESTERN MASSACHUSETTS CITY SKY/WX TMP DP RH WIND PRES REMARKS WORCESTER CLOUDY 30 17 58 W10 29.94S WCI 21 FITCHBURG CLOUDY 31 25 78 CALM 29.97S ORANGE CLOUDY 28 23 81 CALM 29.97S SPRINGFIELD CLOUDY 31 20 63 S3 29.98S WESTFIELD CLOUDY 30 24 78 S3 29.99S NORTH ADAMS CLOUDY 26 22 84 CALM 29.98S PITTSFIELD CLOUDY 29 19 66 SW6 29.94S WCI 23 $$ RIZALL-240500- RHODE ISLAND CITY SKY/WX TMP DP RH WIND PRES REMARKS PROVIDENCE MOCLDY 30 24 78 SW3 30.02R NEWPORT CLEAR 35 22 58 W5 30.00R WCI 31 BLOCK ISLAND CLEAR 39 22 50 NW6 30.02R SMITHFIELD MOCLDY 29 20 69 CALM 29.98S WESTERLY PTCLDY 30 26 85 CALM 30.02S $$ CTZALL-240500- CONNECTICUT CITY SKY/WX TMP DP RH WIND PRES REMARKS BRADLEY INTL CLOUDY 30 22 72 SW3 30.01R HARTFORD CLOUDY 31 25 78 CALM 30.02R BRIDGEPORT CLEAR 32 22 66 CALM 30.03R DANBURY CLOUDY 29 22 75 CALM 30.02S GROTON PTCLDY 28 22 78 NW5 30.02R WCI 23 NEW HAVEN CLEAR 28 20 71 CALM 30.02S CHESTER FAIR 32 16 51 CALM 30.01S MERIDEN CLOUDY 26 21 81 CALM 30.02S WILLIMANTIC CLOUDY 29 24 82 CALM 30.01R OXFORD CLOUDY 29 20 69 W3 30.00R $$ MEZ002-015-021-024-NHZ003-005-008-011-012-014-VTZ005-008-240500- NORTHERN NEW ENGLAND CITY SKY/WX TMP DP RH WIND PRES REMARKS PORTLAND ME MOCLDY 30 18 60 SW3 29.94F BANGOR ME CLOUDY 29 19 66 S5 29.90F WCI 24 CONCORD NH CLOUDY 27 20 75 CALM 29.95F MANCHESTER NH CLOUDY 29 20 69 CALM 29.95S NASHUA NH CLOUDY 28 22 78 CALM 29.98R PORTSMOUTH NH MOCLDY 30 16 56 W5 29.95R WCI 25 JAFFREY NH CLOUDY 30 19 63 S3 29.94S KEENE NH CLOUDY 27 21 78 CALM 29.97R BURLINGTON VT CLOUDY 34 21 59 S13 29.90F WCI 25 MT. WASHINGTON SNOWSHWR 9 9 100 W45 N/A VSB 1/16WCI -18 $$ NYZ052-076-240500- EASTERN NEW YORK CITY SKY/WX TMP DP RH WIND PRES REMARKS ALBANY CLOUDY 33 20 58 S6 30.00S WCI 28 NEW YORK CITY PTCLDY 40 22 48 NW7 30.04S $$ ANZALL-240500- MARINE OBSERVATIONS STATION/POSITION TIME TEMP WIND PRES VSBY WAVE AIR SEA DIR/SP/G HT/PER (UTC) (F) (DEG/KT/KT) (MB) (MI) (FT/S) BOSTON BUOY 0350 39 50 320/ 8/ 10 1014.2R 3/11 BUZZARDS BAY 0300 41 300/ 10/ 12 1016.3R NANTUCKET SOUND 0350 41 49 300/ 12/ 16 1015.7R 1/ 2 MASS BAY-STELLWA 0304 38 49 330/ 12/ 14 1014.1S 3/11 ISLE OF SHOALS 0400 35 290/ 11/ 12 1014.2R S OF BLOCK IS NOT AVBL $$ ......................KEY......................... SKY/WX - SKY CONDITION/PRESENT WEATHER TMP - TEMPERATURE IN FAHRENHEIT DWPT - DEWPOINT IN FAHRENHEIT RH - RELATIVE HUMIDITY IN PERCENT WIND - DIRECTION AND SPEED IN MPH PRES - MEAN SEA LEVEL PRESSURE IN INCHES OF HG WCI - WIND CHILL INDEX VSB - VISIBILITY IN MILES HX - HEAT INDEX TC - TEMPERATURE IN CELSIUS VRB - VARIABLE WIND DIRECTION N/A - NOT AVAILABLE

USA.gov is the U.S. government's official web portal to all federal, state and local government web resources and services.